www.pogodaiklimat.ru

Погода и климат >> Архив погоды >> Мьянма >> Бассейн


ПОГОДА в Бассейне

  • Прогноз погоды в Бассейне
  • Монитор погоды в Бассейне

АРХИВ ПОГОДЫ в Бассейне

Время (UTC), дата Ветер
(напр.,м/с)
 
Видим.   Явления Облачность Т
(С)
Тd
(С)
f
(%)
Тe
(С)
Тes
(С)
Комфортность P
(гПа)
Po
(гПа)
Тmin
(С)
Tmax
(С)
R
(мм)
R24
(мм)
S
(см)
00 11.06 штиль 0 5000 м слаб. дождь 10/6 300 м
[Cb cap Ac As]
+25.0 +25.0 100 +36 +36 очень
душно
1002.5 1001.4 +23.3 21
03 11.06 ЮВ 2 7000 м в посл. час дождь 10/6 300 м
[Cb cap Ac As]
+27.0 +27.0 100 +42 +44 опасность
перегрева
1013.8 1012.6
06 11.06 Ю 3 8000 м 9/6 300 м
[Cb cap Ac As]
+29.2 +26.0 83 +44 +47 опасность
перегрева
1003.7 1002.6
09 11.06 Ю 2 8000 м {дождь} 10/6 300 м
[Cb cap Ac As]
+27.5 +27.0 97 +43 +44 опасность
перегрева
1006.3 1005.2
12 11.06 штиль 0 6000 м слаб. дождь 10/6 300 м
[Cb cap Ac As]
+27.0 +26.5 97 +41 +41 опасность
перегрева
1001.3 1000.2 +29.6 4
15 11.06 штиль 0 6000 м в посл. час дождь 10/6 300 м
[Cb cap Ac As]
+26.5 +26.0 97 +40 +40 очень
душно
1002.6 1001.5
03 12.06 ЮЗ 1 7000 м слаб. дождь 10/6 300 м
[Cb cap Ac As]
+26.0 +25.5 97 +38 +40 очень
душно
1003.8 1002.7
06 12.06 ЮЗ 2 7000 м слаб. дождь 10/6 300 м
[Cb cap Ac As]
+26.8 +26.8 100 +42 +44 опасность
перегрева
1003.6 1002.5
09 12.06 ЮЗ 2 7000 м слаб. дождь 10/6 300 м
[Cb cap Ac As]
+27.0 +26.5 97 +41 +42 опасность
перегрева
1003.3 1002.2
12 12.06 Ю 2 6000 м 10/6 300 м
[Cb cap Ac As]
+26.0 +25.5 97 +38 +38 очень
душно
1001.7 1000.6 +27.8 21
15 12.06 штиль 0 6000 м 9/6 300 м
[Cb cap Ac As]
+26.0 +25.5 97 +38 +38 очень
душно
1003.5 1002.4
00 13.06 штиль 0 6000 м 9/5 300 м
[Cb cap Ac As]
+26.5 +25.5 94 +39 +39 очень
душно
1003.3 1002.2 +24.0
03 13.06 Ю 1 7000 м 10/8 300 м
[Cb cap Ac As]
+27.5 +25.5 89 +40 +41 очень
душно
1005.2 1004.1
06 13.06 Ю 2 8000 м 10/6 300 м
[Cb cap Ac lent]
+29.4 +25.0 77 +42 +44 опасность
перегрева
1005.4 1004.3
09 13.06 Ю 2 7000 м 10/6 300 м
[Cb cap Ac As]
+29.4 +25.0 77 +42 +43 опасность
перегрева
1002.1 1001.0
12 13.06 штиль 0 6000 м в посл. час дождь {морось} 10/6 300 м
[Cb cap Ac As]
+26.0 +25.5 97 +38 +38 очень
душно
1002.8 1001.7 +30.5 1
15 13.06 штиль 0 6000 м 8/5 300 м
[Cb cap Ac As]
+26.5 +25.5 94 +39 +39 очень
душно
1004.2 1003.1
00 14.06 штиль 0 6000 м 10/6 300 м
[Cb cap Ac As]
+25.5 +25.0 97 +36 +36 очень
душно
1004.3 1003.2 +23.8
03 14.06 штиль 0 7000 м 10/6 300 м
[Cb cap Ac As]
+28.0 +27.0 94 +44 +46 опасность
перегрева
1006.6 1005.5
06 14.06 ЮЗ 2 9000 м 6/5 300 м
[Cb cap Ac lent]
+32.5 +27.5 75 +52 +61 опасность
перегрева
1005.6 1004.5
09 14.06 ЮЗ 2 8000 м 8/5 300 м
[Cb cap Ac lent]
+33.3 +26.0 66 +49 +52 опасность
перегрева
1003.2 1002.1
12 14.06 З 1 6000 м 8/4 300 м
[Cb cap Ac As]
+31.5 +26.0 73 +47 +47 опасность
перегрева
1003.2 1002.1 +33.6
15 14.06 штиль 0 6000 м 6/4 300 м
[Cb cap Ac As]
+29.5 +25.0 77 +43 +43 опасность
перегрева
1004.0 1002.9
00 15.06 штиль 0 6000 м 4/1 300 м
[Sc Ac lent]
+27.5 +26.5 94 +42 +43 опасность
перегрева
1004.8 1003.7 +25.8
03 15.06 Ю 3 8000 м 6/4 300 м
[Cb cap Ac lent]
+31.5 +27.0 77 +49 +54 опасность
перегрева
1005.8 1004.7
06 15.06 Ю 2 8000 м в посл. час дождь 10/6 300 м
[Cb cap Ac As]
+30.8 +28.0 85 +51 +53 опасность
перегрева
1005.5 1004.4
09 15.06 ЮЗ 1 8000 м в посл. час дождь 10/8 300 м
[Cb cap Ac As]
+25.5 +25.5 100 +37 +38 очень
душно
1008.7 1007.5
12 15.06 штиль 0 6000 м 10/6 300 м
[Cb cap Ac As]
+27.5 +27.0 97 +43 +43 опасность
перегрева
1003.5 1002.4 +33.2 43
15 15.06 штиль 0 6000 м слаб. морось {дождь} 10/6 300 м
[Cb cap Ac As]
+25.0 +25.0 100 +36 +36 очень
душно
1004.2 1003.0
00 16.06 СВ 1 6000 м 5/3 300 м
[Sc Ac lent]
+26.0 +25.5 97 +38 +38 очень
душно
1004.0 1002.9 +23.4 6
03 16.06 штиль 0 7000 м в посл. час дождь 10/6 300 м
[Cb cap Ac As]
+26.5 +26.0 97 +40 +42 очень
душно
1005.8 1004.7
06 16.06 ЮЗ 1 7000 м слаб. дождь 10/6 300 м
[Cb cap Ac As]
+27.0 +27.0 100 +42 +45 опасность
перегрева
1005.0 1003.9
09 16.06 штиль 0 7000 м в посл. час дождь 10/8 300 м
[Cb cap Ac As]
+26.8 +26.8 100 +42 +42 опасность
перегрева
1003.0 1001.9
12 16.06 штиль 0 6000 м слаб. морось {дождь} 10/8 300 м
[Cb cap Ac As]
+25.0 +25.0 100 +36 +36 очень
душно
1003.3 1002.2 +28.0 25
00 17.06 Ю 1 6000 м 10/5 300 м
[Cb cap Ac As]
+26.0 +26.0 100 +39 +39 очень
душно
1003.0 1001.9 +23.2
03 17.06 ЮЗ 1 7000 м 10/8 300 м
[Cb cap Ac As]
+27.0 +26.5 97 +41 +42 опасность
перегрева
1003.8 1002.7
06 17.06 ЮЗ 1 7000 м слаб. дождь 10/6 300 м
[Cb cap Ac As]
+25.5 +25.5 100 +37 +40 очень
душно
1004.7 1003.6
09 17.06 ЮЗ 1 7000 м слаб. дождь 10/6 300 м
[Cb cap Ac As]
+25.8 +25.8 100 +38 +40 очень
душно
1003.2 1002.1
12 17.06 ЮЗ 1 6000 м в посл. час дождь 10/6 300 м
[Cb cap Ac As]
+25.3 +25.3 100 +36 +36 очень
душно
1002.0 1000.9 +28.5 22

 

Местоположение метеостанции Бассейн (Мьянма): широта 16.77 долгота 94.77 высота над уровнем моря 10 м.

В архиве по умолчанию представлена погода в Бассейне за последнюю неделю. Архивные данные за месяц целиком и за предыдущие месяцы, начиная с января 2011 года, Вы можете получить, выбрав интересующий диапазон дат из раскрывающегося списка и нажав кнопку "Ввод!".


*Определитесь, кто Вы:
робот инопланетянин человек

Внимание! Время в таблицах - всемирное. Для получения местного времени необходимо прибавить поправку, которая равна 6.5 ч.

Смотрите также архив погоды в соседних городах и на ближайших метеорологических станциях:

Погода в Гва (Мьянма) (92 км)
Погода в Маубине (Мьянма) (94 км)
Погода в Пхьяпоуне (Мьянма) (111 км)
Погода в Хинтаде (Мьянма) (122 км)
Погода в Хмавби (Мьянма) (139 км)
Погода у Янгоне (Мьянма) (149 км)
Погода в Мингаладоне (Мьянма) (151 км)
Погода в Пегу (Мьянма) (194 км)
Погода в Тандве (Мьянма) (194 км)
Погода в Проме (Мьянма) (231 км)

Пояснения к столбцам:

Ветер - указаны скорость ветра в м/с - средняя за 10 мин, порывы в срок и между сроками (в фигурных скобках) и направление, откуда дует ветер: С - северный, СВ - северо-восточный, В - восточный, ЮВ - юго-восточный, Ю - южный, ЮЗ - юго-западный, З - западный, СЗ - северо-западный.
Видимость - горизонтальная дальность видимости в метрах или километрах. При видимости от 1 до 10 км при отсутствии осадков обычно наблюдается дымка, при ухудшении видимости до 1 км и менее - туман. В сухую погоду видимость может ухудшаться дымом, пылью или мглою.
Явления - указаны атмосферные явления, наблюдавшиеся в срок или в последний час перед сроком; фигурными скобками обозначены явления, наблюдавшиеся между сроками (за 1-3 часа до срока); квадратными скобками обозначены град или гололедные отложения с указанием их диаметра в мм.
Облачность - указаны через наклонную черту общая и нижняя облачность в баллах и высота нижней границы облаков в метрах; квадратными скобками обозначены формы облаков: Ci - перистые, Cs - перисто-слоистые, Cc - перисто-кучевые, Ac - высококучевые, As - высокослоистые, Sc - слоисто-кучевые, Ns - слоисто-дождевые, Cu - кучевые, Cb - кучево-дождевые. Подробнее классификацию облаков см. в Атласе облаков (PDF).
T - Температура воздуха - температура, измеренная на высоте 2 м над землей.
Td - Температура точки росы - температура, при понижении до которой содержащийся в воздухе водяной пар достигнет насыщения.
f - Относительная влажность воздуха - влажноcть воздуха, измеренная на высоте 2 м над землей.
Te - Эффективная температура - температура, которую ощущает одетый по сезону человек в тени. Характеристика душности погоды. При расчете учитывается влияние влажности воздуха и скорости ветра на теплоощущения человека.
Tes - Эффективная температура на солнце - температура, которую ощущает человек, с поправкой на солнечный нагрев. Характеристика знойности погоды. Зависит от высоты солнца над горизонтом, облачности и скорости ветра. Ночью, в пасмурную погоду, а также при ветре 12 м/с и более поправка равна нулю.
P - Атмосферное давление - приведенное к уровню моря атмосферное давление.
Po - Атмосферное давление - измеренное на уровне метеостанции атмосферное давление.
Tmin - Минимальная температура - минимум температуры воздуха на высоте 2 м над землей.
Tmax - Максимальная температура - максимум температуры воздуха на высоте 2 м над землей.
R - Количество осадков - Количество выпавших осадков за период времени, мм. При наведении курсора мыши на число - период времени, за который выпало указанное количество осадков.
R24 - Количество осадков - Количество выпавших осадков за 24 часа, мм.
S - Снежный покров - Высота снежного покрова, см. При наведении курсора мыши на число - состояние снежного покрова и степень покрытия местности в баллах.